Vorticity
5 4 4 3 4 4 4 5 5 5 4 3 4 5 6 5 6 6 4 3 4 6 7 4 4 5 5 5 2 2 1 2 3 4 4 4 4 8 4 2 3 2 3
5 4 4 4 3 5 5 4 4 4 4 4 5 5 4 5 5 5 6 3 4 6 5 4 4 5 6 5 3 3 3 3 4 3 3 4 4 6 5 3 2 2 2
6 5 3 3 3 5 5 4 4 4 4 5 5 4 4 3 3 6 4 4 7 6 6 7 5 5 5 5 5 4 4 3 3 2 2 4 4 5 6 3 2 3 3
6 6 4 3 3 5 4 5 4 5 5 7 5 2 0 0 2 2 4 3 6 5 6 7 7 7 7 7 6 5 5 4 3 3 3 3 2 4 4 4 4 4 4
5 7 4 3 3 4 5 5 5 5 7 4 -1 -0 2 3 5 4 5 5 3 6 5 5 6 6 5 5 6 5 6 6 5 4 4 4 3 3 3 3 4 3 4
3 7 6 4 3 3 4 5 5 6 3 -0 3 2 -1 5 6 5 5 5 5 3 5 3 1 3 4 4 5 6 7 7 6 6 6 4 4 4 4 3 5 3 3
4 7 5 5 4 4 4 5 7 6 -0 1 1 1 2 2 3 7 5 7 6 5 4 4 4 3 5 6 7 6 7 8 6 6 7 6 6 5 5 4 4 4 3
5 6 7 5 4 5 5 6 8 3 2 2 1 -1 1 3 4 8 7 4 5 5 5 3 3 3 3 3 3 3 4 5 7 7 8 8 8 7 6 6 5 5 4
4 4 7 5 4 4 5 8 8 -2 0 2 1 1 1 3 4 8 7 5 5 6 5 6 2 2 3 3 1 1 1 2 2 2 3 4 5 6 6 7 7 6 6
5 3 6 6 4 4 5 8 3 -0 1 2 1 -0 -4 0 5 5 9 6 6 6 5 7 5 3 3 1 3 6 7 5 4 4 3 3 2 2 2 2 2 3 3
6 3 4 6 4 4 5 11 1 2 1 1 0 -4 1 1 4 5 6 8 8 4 0 5 12 5 3 2 3 4 6 5 4 4 4 4 5 5 4 3 2 1 1
6 4 3 5 5 5 5 7 2 -2 1 4 1 -4 -7 -1 2 5 2 7 8 7 6 6 7 8 7 3 1 3 5 5 4 5 6 6 5 5 4 4 4 4 4
8 6 4 5 6 5 4 8 -0 0 2 3 2 4 12 7 1 3 4 4 4 8 8 6 3 12 8 5 5 9 2 5 4 3 6 6 6 6 7 6 6 6 6
6 6 4 3 7 6 6 6 6 1 0 3 3 2 -1 5 6 2 4 1 2 3 6 8 6 7 12 16 9 10 7 1 4 5 6 5 3 3 3 4 8 8 6
2 7 5 2 4 4 5 6 6 5 5 3 3 -0 1 3 -14 1 4 2 4 3 1 3 8 10 9 8 12 6 8 7 7 2 2 3 2 1 2 4 6 5 7
4 3 8 2 3 3 4 4 6 4 -2 -2 -1 -5 6 -2 2 -4 3 1 2 4 2 2 3 7 11 8 7 14 4 3 5 8 3 -0 1 2 8 9 4 7 8
6 4 -16 14 -1 4 2 5 4 -1 3 3 -1 7 3 17 6 -3 2 1 3 2 2 3 2 3 6 10 8 12 12 7 4 3 5 6 6 8 8 3 2 7 9
-0 2 30 -15 -6 4 2 3 3 5 -2 -1 5 8 1 5 -1 3 0 -1 1 2 4 2 1 2 2 4 7 8 7 10 8 6 9 8 8 4 4 3 7 9 6
1 -23 22 28 23 -5 3 4 1 3 5 6 8 -4 2 0 1 3 -4 -0 2 3 4 1 6 5 1 4 5 6 8 7 6 5 3 4 3 5 8 5 7 7 7
4 11 -23 -1 36 61 1 -2 7 1 -0 1 3 3 2 -0 3 4 2 3 -0 -0 -3 1 4 9 2 2 4 6 6 7 9 8 7 7 9 7 7 5 7 7 5
1 -6 11 81 -42 -14 14 -1 -15 -12 4 -8 -8 1 6 5 2 1 -2 3 -0 -1 0 -1 8 9 3 9 1 6 6 6 8 10 8 7 8 6 5 6 9 4 3
5 10 7 -21 6 9 16 -1 25 17 14 8 6 3 1 2 3 4 1 -2 -2 -0 4 4 5 10 4 0 3 8 8 10 7 10 8 5 4 3 6 7 4 1 2
3 3 22 -35 10 18 13 14 5 3 1 3 1 1 3 2 -1 -1 -2 -1 2 5 6 4 9 7 5 10 10 5 9 9 10 10 6 6 5 7 7 4 2 2 5
8 8 -1 12 0 -6 -10 2 6 3 5 4 2 3 3 3 2 5 6 3 5 5 1 6 4 6 4 6 8 6 8 9 8 8 8 7 6 5 4 3 1 4 8
13 9 12 21 -31 -25 21 44 7 0 6 9 1 -1 4 13 0 8 2 3 3 2 1 3 5 9 7 4 4 8 10 7 7 8 6 5 5 4 1 4 6 11 12
13 9 14 6 6 -17 -19 87 20 13 8 6 3 -1 3 12 -15 8 5 -0 7 1 9 6 1 3 16 16 -3 2 5 6 5 5 6 5 3 3 4 9 11 7 6
Height
5864 5866 5868 5870 5871 5872 5873 5874 5875 5877 5877 5878 5879 5879 5879 5878 5878 5879 5879 5879 5878 5879 5878 5878 5878 5878 5878 5878 5878 5878 5878 5878 5877 5876 5875 5873 5872 5870 5869 5868 5867 5865 5863
5863 5865 5867 5868 5870 5871 5872 5873 5875 5876 5877 5878 5878 5879 5879 5879 5879 5879 5879 5879 5879 5879 5879 5879 5878 5878 5878 5878 5878 5878 5877 5877 5876 5875 5874 5873 5871 5870 5869 5867 5866 5864 5861
5860 5863 5865 5867 5868 5870 5872 5873 5874 5875 5876 5877 5878 5879 5879 5879 5879 5879 5879 5879 5879 5879 5879 5879 5879 5878 5878 5877 5877 5877 5876 5876 5875 5874 5873 5871 5870 5869 5867 5865 5864 5862 5859
5858 5860 5862 5865 5867 5869 5871 5872 5873 5875 5876 5877 5878 5878 5879 5879 5879 5879 5879 5879 5879 5879 5879 5878 5878 5878 5877 5877 5876 5876 5875 5875 5874 5873 5872 5870 5869 5867 5866 5864 5862 5861 5859
5854 5857 5860 5862 5865 5867 5869 5871 5872 5874 5875 5876 5877 5878 5878 5878 5878 5878 5879 5879 5879 5879 5879 5878 5878 5878 5877 5877 5876 5875 5874 5873 5872 5871 5870 5868 5867 5866 5864 5863 5861 5859 5857
5851 5853 5857 5859 5861 5864 5867 5869 5871 5872 5874 5875 5876 5877 5877 5877 5877 5877 5878 5878 5878 5878 5878 5878 5878 5877 5876 5876 5875 5874 5873 5872 5870 5869 5868 5867 5866 5864 5863 5861 5859 5857 5855
5847 5850 5853 5856 5858 5861 5864 5866 5868 5871 5872 5874 5874 5875 5876 5876 5876 5876 5876 5876 5877 5877 5877 5877 5876 5876 5875 5874 5873 5872 5871 5870 5868 5867 5867 5865 5864 5862 5861 5859 5857 5855 5853
5842 5847 5850 5852 5855 5858 5861 5863 5866 5868 5870 5872 5873 5873 5874 5874 5874 5875 5875 5875 5875 5875 5875 5875 5875 5874 5874 5873 5872 5871 5870 5869 5867 5866 5864 5863 5862 5860 5858 5857 5855 5853 5851
5838 5842 5846 5849 5852 5855 5858 5861 5863 5866 5868 5869 5871 5872 5872 5872 5873 5874 5874 5873 5873 5873 5873 5873 5873 5872 5871 5871 5870 5869 5869 5867 5866 5865 5863 5861 5860 5858 5856 5855 5852 5850 5848
5833 5837 5842 5846 5849 5852 5855 5858 5860 5862 5865 5867 5868 5869 5870 5870 5871 5872 5872 5871 5871 5870 5870 5870 5870 5870 5869 5868 5868 5867 5866 5865 5864 5862 5861 5859 5858 5856 5854 5852 5850 5848 5846
5828 5833 5837 5842 5845 5848 5851 5855 5857 5860 5861 5863 5866 5867 5867 5868 5870 5870 5870 5869 5869 5868 5868 5867 5867 5866 5866 5865 5865 5864 5863 5862 5861 5859 5858 5856 5855 5853 5852 5850 5848 5846 5844
5823 5829 5833 5838 5841 5845 5848 5851 5854 5857 5858 5860 5862 5864 5864 5865 5868 5868 5868 5867 5867 5866 5865 5865 5864 5863 5863 5862 5861 5860 5860 5859 5857 5856 5855 5853 5852 5850 5848 5846 5844 5842 5840
5817 5823 5827 5832 5837 5840 5844 5847 5850 5853 5854 5856 5858 5860 5861 5862 5864 5865 5865 5865 5864 5863 5862 5862 5861 5860 5859 5858 5857 5856 5856 5855 5854 5852 5851 5850 5848 5846 5844 5842 5840 5837 5835
5813 5816 5822 5826 5831 5835 5839 5842 5845 5848 5850 5852 5854 5856 5857 5859 5860 5861 5861 5861 5861 5860 5859 5858 5857 5856 5855 5854 5853 5852 5851 5851 5849 5848 5847 5846 5844 5842 5840 5838 5836 5834 5831
5806 5810 5814 5818 5823 5828 5833 5836 5840 5843 5846 5848 5850 5852 5853 5855 5856 5857 5858 5858 5857 5856 5855 5854 5853 5852 5851 5850 5849 5848 5847 5846 5845 5843 5842 5840 5839 5837 5835 5833 5830 5828 5826
5798 5803 5807 5811 5816 5820 5825 5829 5833 5837 5841 5843 5846 5847 5848 5850 5851 5853 5854 5853 5853 5852 5851 5850 5849 5848 5847 5845 5844 5843 5842 5841 5840 5838 5836 5835 5833 5831 5829 5826 5824 5822 5819
5793 5797 5800 5803 5809 5814 5819 5823 5826 5830 5834 5837 5840 5842 5844 5845 5847 5848 5848 5848 5848 5847 5846 5846 5845 5844 5843 5841 5839 5837 5836 5834 5833 5832 5831 5828 5827 5824 5822 5820 5817 5815 5813
5784 5789 5793 5793 5801 5806 5812 5816 5821 5823 5828 5831 5834 5836 5839 5840 5841 5842 5842 5842 5842 5842 5841 5841 5840 5838 5837 5835 5833 5831 5829 5828 5827 5825 5823 5822 5820 5817 5816 5813 5811 5808 5806
5776 5785 5782 5771 5785 5799 5803 5809 5814 5818 5821 5825 5829 5831 5833 5835 5835 5835 5836 5836 5836 5836 5836 5835 5834 5832 5831 5829 5827 5825 5823 5821 5819 5817 5816 5814 5812 5811 5808 5806 5804 5801 5798
5768 5776 5774 5784 5785 5789 5796 5804 5809 5813 5817 5819 5823 5825 5826 5828 5829 5829 5830 5830 5830 5829 5829 5828 5827 5826 5824 5822 5820 5818 5815 5814 5812 5810 5809 5807 5804 5802 5800 5798 5795 5793 5790
5763 5768 5772 5772 5782 5785 5791 5797 5804 5807 5810 5811 5814 5818 5819 5821 5821 5822 5823 5823 5823 5822 5821 5821 5820 5818 5816 5815 5813 5811 5808 5806 5804 5802 5800 5799 5797 5794 5792 5789 5787 5784 5780
5756 5763 5768 5768 5774 5778 5783 5790 5795 5798 5802 5805 5808 5810 5812 5812 5814 5815 5815 5815 5814 5814 5813 5813 5811 5810 5808 5807 5805 5803 5801 5799 5794 5792 5791 5789 5788 5785 5782 5779 5776 5773 5771
5750 5754 5760 5750 5769 5773 5775 5781 5787 5791 5795 5798 5799 5802 5803 5805 5805 5806 5806 5806 5806 5805 5804 5803 5802 5801 5800 5797 5795 5793 5791 5789 5787 5785 5782 5779 5777 5775 5772 5769 5766 5763 5759
5742 5748 5750 5757 5761 5764 5768 5774 5780 5784 5786 5789 5791 5793 5794 5795 5796 5796 5797 5797 5797 5796 5795 5793 5792 5791 5789 5787 5785 5782 5780 5778 5775 5774 5771 5769 5767 5764 5761 5758 5755 5752 5748
5734 5740 5742 5749 5750 5741 5757 5763 5769 5774 5778 5780 5782 5783 5784 5785 5786 5787 5788 5788 5788 5786 5785 5784 5781 5780 5779 5777 5775 5773 5770 5767 5765 5763 5760 5758 5755 5752 5749 5745 5742 5739 5736
5726 5732 5734 5740 5748 5751 5752 5747 5760 5766 5770 5771 5772 5773 5774 5775 5775 5777 5778 5778 5777 5776 5775 5773 5770 5768 5766 5766 5764 5761 5759 5757 5754 5752 5748 5745 5743 5738 5735 5731 5729 5726 5723